Location: ??
(35.5052°N, 139.7262°E)
Time: 15:41:39
(UTC+00:00)

IRS-1D - Pass Details

Date: 20 June 2021
Orbit: 739 x 817 km, 98.6° (Epoch: 29 July)

Event Time Altitude Azimuth Distance (km) Brightness Sun altitude
Rises 17:06:30 0° 11° (N) 3,258 7.9 -22.0°
Reaches altitude 10° 17:08:50 10° 11° (N) 2,315 6.9 -21.7°
Maximum altitude 17:13:56 81° 285° (WNW) 771 3.4 -21.1°
Enters shadow 17:15:28 45° 204° (SSW) 1,013 3.7 -20.9°
